Miscellaneous Local Product
Issued by NWS North Platte, NE

Home | Current Version | Previous Version | Text Only | Print | Product List | Glossary On
Versions: 1 2 3 4 5 6 7 8 9 10 11 12 13 14 15 16 17 18 19 20 21 22 23 24 25 26 27 28 29 30 31 32 33 34 35 36 37 38 39 40 41 42 43 44 45 46 47 48 49 50
000
AXUS43 KLBF 030510
MISLBF


WESTERN AND NORTH CENTRAL NEBRASKA HOURLY WEATHER ROUNDUP
NATIONAL WEATHER SERVICE NORTH PLATTE NE
1200 AM CDT SUN MAY 03 2015

***STATIONS NOT REPORTING VARIABLES SUCH AS SKY/WEATHER OR
PRESSURE ARE PROVIDED BY THE NEBRASKA DEPARTMENT OF
ROADS...RAWS...AND APRS NETWORKS...AND ARE NOT UNDER
NATIONAL WEATHER SERVICE QUALITY CONTROL***

...OBSERVATIONS IN AND NEAR THE EASTERN PANHANDLE OF NEBRASKA...

CITY           SKY/WX    TMP DP  RH WIND       PRES   REMARKS
PINE RIDGE     MOCLDY    54  39  57 NE7       29.76S
CHADRON        MOCLDY    56  40  55 N6        29.76F
ALLIANCE       CLOUDY    62  41  46 SW10      29.80F
SIDNEY         CLOUDY    52  45  77 W12       29.88S
WHITECLAY        N/A     55  38  52 CALM        N/A
CRESCENT LAKE    N/A     65  38  36 W13G28      N/A
BIG SPRINGS      N/A     66  45  46 W7          N/A
$$

...OBSERVATIONS IN NORTH CENTRAL NEBRASKA...

CITY           SKY/WX    TMP DP  RH WIND       PRES   REMARKS
VALENTINE      CLEAR     58  42  55 W3        29.70F
THEDFORD       PTCLDY    67  36  32 W10       29.74F
AINSWORTH      CLEAR     59  49  68 SE5       29.71S
O`NEILL        PTCLDY    68  47  47 CALM      29.71F
ORD            CLEAR     62  46  55 W3        29.70F
BROKEN BOW     PTCLDY    54  43  66 CALM      29.72F
BROWNLEE         N/A     65  33  30 CALM        N/A
VALENTINE NWR    N/A     59  41  51 CALM        N/A
SPRINGVIEW       N/A     64  44  48 CALM        N/A
HALSEY           N/A     64  30  28 SW5         N/A
BREWSTER         N/A     59  43  55 CALM        N/A
ROSE             N/A     65  54  66 E5          N/A
NEWPORT          N/A     65  46  51 E6          N/A
SARGENT          N/A     60  46  59 CALM        N/A
COMSTOCK         N/A     72  49  43 W6          N/A
EWING            N/A     66  51  58 S5          N/A
$$

...OBSERVATIONS IN SOUTHWEST NEBRASKA AND FAR NORTHEAST COLORADO...

CITY           SKY/WX    TMP DP  RH WIND       PRES   REMARKS
WRAY           FAIR      61  45  54 W10       29.86F
IMPERIAL       CLOUDY    68  38  33 W8        29.80F
OGALLALA       CLOUDY    63  44  50 SW7       29.79F
NORTH PLATTE   MOCLDY    61  44  53 W6        29.78R
MCCOOK         MOCLDY    69  45  41 W12       29.79R
LEXINGTON      MOCLDY    66  48  53 SW8       29.73F
PAXTON           N/A     67  47  48 W3          N/A
SUTHERLAND       N/A     63  43  47 W7          N/A
GOTHENBURG       N/A     68  43  40 W5          N/A
CALLAWAY         N/A     60  46  59 CALM        N/A
$$

...NORTH PLATTE AREA...

CITY           SKY/WX    TMP DP  RH WIND       PRES   REMARKS
AIRPORT        MOCLDY    61  44  53 W6        29.78R
DOWNTOWN         N/A     67  44  43 CALM        N/A
$$

...SOME WEATHER OBSERVATIONS FROM AROUND THE REGION...

CITY           SKY/WX    TMP DP  RH WIND       PRES   REMARKS
DENVER         MOCLDY    54  40  59 S15       29.98F
LARAMIE        CLOUDY    48  35  60 SW15      30.02R
CHEYENNE       CLOUDY    55  37  50 W16       29.95S
SCOTTSBLUFF    MOCLDY    59  42  53 SW7       29.81F
RAPID CITY     CLEAR     52  31  44 N7        29.75S
PIERRE         PTCLDY    62  37  39 NE8       29.67S
WINNER         FAIR      70  35  27 SW7       29.65F
SIOUX FALLS    MOCLDY    64  54  69 S12       29.71F
OMAHA          TSTM      65  59  81 SW10      29.85R
GRAND ISLAND   CLEAR     72  52  49 S20G29    29.72S
KANSAS CITY    CLOUDY    66  53  63 S16       29.88F
WICHITA        MOCLDY    67  54  63 S14       29.87S
HAYS           CLOUDY    70  48  46 S21       29.79S
LIBERAL        CLOUDY    70  45  40 NW6       29.90R
GOODLAND       CLOUDY    67  42  40 SW20G26   29.89R
$$



USA.gov is the U.S. government's official web portal to all federal, state and local government web resources and services.